#timestamp,LO_Frequency,Hit,StdDev 
1619452835.8,286047018.7,P
1619452855.6,286047018.4,P
1619452875.5,286047016.3,P
1619452895.3,286047018.3,Y
1619452915.2,286046998.2,P
1619452935.9,286046999.8,N
1619452955.7,286047000.2,N
1619452975.6,286047000.1,N
1619452995.4,286046999.7,N
1619453015.2,286047002.8,N
1619453035.1,286047000.0,N
1619453036.0,286047000.0,N
1619453055.8,286047002.7,N
1619453075.7,286047002.4,N
1619453095.5,286047003.9,N
1619453115.3,286047004.1,N
1619453135.2,286047003.8,N
1619453155.0,286047004.1,N
1619453155.9,286047004.1,N
1619453175.8,286047003.6,N
1619453195.6,286047003.4,N
1619453215.4,286047003.4,N
1619453235.3,286047005.8,N
1619453255.1,286047005.8,N
1619453256.0,286047005.8,N
1619453275.8,286047004.5,N
1619453295.7,286047005.0,N
1619453315.5,286047004.5,N
1619453335.4,286047007.2,N
1619453355.2,286047010.7,N
1619453375.0,286047010.6,N
1619453375.9,286047010.6,N
1619453395.8,286047008.2,N
1619453415.6,286047010.0,N
1619453435.4,286047010.0,N
1619453455.3,286047009.3,N
1619453475.1,286047013.9,Y
1619453495.9,286047006.6,P
1619453515.7,286047009.0,P
1619453535.5,286047008.0,P
1619453555.4,286047010.7,Y
1619453575.2,286047002.0,P
1619453595.0,286047001.6,N
1619453595.9,286047001.6,N
1619453615.8,286047004.2,N
1619453635.6,286047004.1,N
1619453655.5,286047003.4,N
1619453675.3,286047005.8,Y
1619453695.1,286047000.6,P
1619453715.9,286046999.9,N
1619453735.7,286047000.8,N
1619453755.5,286047002.7,N
1619453775.4,286047003.8,N
1619453795.2,286047003.9,N
1619453815.1,286047005.5,Y
1619453816.0,286047005.5,P
1619453835.8,286047003.6,N
1619453855.6,286047004.1,N
1619453875.5,286047002.0,N
1619453895.3,286047004.4,Y
1619453915.2,286047001.0,P
1619453935.9,286047000.6,N
1619453955.7,286047002.8,N
1619453975.6,286047002.6,N
1619453995.4,286047001.9,N
1619454015.2,286047002.1,N
1619454035.1,286047003.8,Y
1619454036.0,286047003.8,P
1619454055.8,286047002.7,P
1619454075.7,286047002.1,N
1619454095.5,286047000.1,N
1619454115.3,286047002.3,N
1619454135.2,286047002.6,N
1619454155.9,286047001.6,N
1619454175.7,286047003.8,Y
1619454195.6,286047001.3,P
1619454215.4,286047001.8,P
1619454235.3,286047004.1,P
1619454255.1,286047004.3,Y
1619454256.0,286047004.3,P
1619454275.8,286047002.6,N
1619454295.7,286047001.3,N
1619454315.5,286047003.8,Y
1619454335.3,286047000.7,P
1619454355.2,286046998.6,N
1619454375.0,286047001.1,N
1619454375.9,286047001.1,N
1619454395.8,286047002.4,N
1619454415.6,286047001.5,N
1619454435.4,286047004.0,Y
1619454455.3,286047002.2,P
1619454475.1,286047002.4,P
1619454495.8,286047002.5,P
1619454515.7,286047004.0,Y
1619454535.5,286047001.5,P
1619454555.4,286047004.3,P
1619454575.2,286047004.1,P
1619454595.0,286047001.4,N
1619454595.9,286047001.4,N
1619454615.8,286047003.4,N
1619454635.6,286047003.5,N
1619454655.5,286047007.5,Y
1619454675.3,286047005.6,P
1619454695.1,286047006.0,P
1619454715.9,286047005.5,P
1619454735.7,286047005.4,Y
1619454755.5,286047000.3,P
1619454775.4,286047002.7,N
1619454795.2,286047002.0,N
1619454815.1,286047003.1,N
1619454816.0,286047003.1,N
1619454835.8,286047003.1,N
1619454855.6,286047003.1,N
1619454875.5,286047003.6,N
1619454895.3,286047003.5,N
1619454915.1,286047003.4,N
1619454935.9,286047002.9,N
1619454955.7,286047004.9,Y
1619454975.6,286047003.8,P
1619454995.4,286047003.8,P
1619455015.2,286047006.7,P
1619455035.1,286047008.1,Y
1619455036.0,286047008.1,P
1619455055.8,286047007.5,P
1619455075.6,286047006.7,P
1619455095.5,286047009.1,Y
1619455115.3,286047002.6,P
1619455135.2,286047002.2,N
1619455155.9,286047004.2,N
1619455175.7,286047005.8,Y
1619455195.6,286047000.4,P
1619455215.4,286047002.8,N
1619455235.3,286047002.5,N
1619455255.1,286047003.1,N
1619455256.0,286047003.1,N
1619455275.8,286047003.3,Y
1619455295.7,286047002.3,P
1619455315.5,286047002.4,P
1619455335.4,286047002.3,P
1619455355.2,286047001.8,Y
1619455375.0,286046999.7,P
1619455375.9,286046999.7,N
1619455395.8,286047002.6,N
1619455415.6,286047004.3,Y
1619455435.5,286047003.2,P
1619455455.3,286047005.9,P
1619455475.1,286047003.2,N
1619455495.9,286047003.7,N
1619455515.7,286047003.6,N
1619455535.5,286047005.9,Y
1619455555